Погода в Нахчиване

Погода в Нахчиване : погода сейчас, прогноз погоды и архив. Всё, что Вы хотите узнать о погоде в Нахчиване!

Поиск расширенной информации на нашем сайте:

Другие новости

Новости СМИ2

Главная страница сайта

Новости сайта

03.07.2017

Напоминаем, что на нашем специализированном сайте Метеоцентр.Азия вы можете получить высокодетализированные автоматические прогнозы погоды по пунктам России, СНГ и мира в авиационном формате (включающие направление и скорость ветра, видимость, явления погоды, количество и форму облачности, нижнюю и верхнюю границу облачности).


Погода в Нахчиване - сегодня

Время (UTC), дата Ветер
(°,м/с) 
Видим.   Явления Облачность Т
(°С)
Тd
(°С)
f(%) Тe
(°С)
Pmin
(гПа)
dP
(гПа)
Po
(мм)
O2
(г/м3)
Тmin Tmax R s Состояние
почвы
15 10.12.17 тихо ()   н/о    ясно 
-1.8 -3.2 90 -2  1029.1  -0.3  691  281           
21 10.12.17 360 (С) н/о    ясно 
-3.6 -4.3 95 -5  1031.3  0.5  692  283           
00 11.12.17 360 (С) н/о    ясно 
-4.2 -4.9 95 -5  1032.2  0.5  693  284           
03 11.12.17 360 (С) н/о    ясно 
-5.8 -6.2 97 -7  1032.9  693  286           
06 11.12.17 тихо ()   4000 м    5/0 верхняя 
[Cs]
-3.4 -4.7 91 -3  1032.9  0.9  693  283  -5.9      замёрзшая 
09 11.12.17 тихо ()   4000 м    5/0 средняя 
[As op]
+2.8 -0.5 79 +3  1029.7  -1.4  693  276           
12 11.12.17 тихо ()   4000 м    8/0 верхняя 
[Ci fib]
+4.8 -0.5 69 +5  1028.7  -0.2  693  274           
15 11.12.17 тихо ()   н/о    5/0 верхняя 
[Ci fib]
+1.2 -0.8 86 +1  1032.3  1.8  694  278           
21 11.12.17 160 (Ю) н/о    ясно 
-3.2 -4.2 93 -4  1035.8  0.6  695  284           
00 12.12.17 150 (ЮВ) н/о    ясно 
-4 -4.7 95 -5  1036.6  0.4  696  285           
03 12.12.17 тихо ()   н/о    ясно 
-4.8 -5.5 95 -5  1036.8  696  286           
06 12.12.17 тихо ()   10 км    3/0 верхняя 
[Ci fib]
-3.8 -5.2 90 -4  1038.1  1.5  697  285  -4.9      замёрзшая 
09 12.12.17 тихо ()   10 км    3/0 верхняя 
[Ci fib]
+3.8 +0.1 77 +4  1034.7  704  280           
12 12.12.17 тихо ()   10 км    3/0 средняя 
[Ac trans]
+5.6 +0.1 68 +6  1032  -1.9  695  274           
15 12.12.17 тихо ()   н/о    3/0 верхняя 
[Ci fib]
+1.6 -0 89 +2  1033  -0.6  695  278           
21 12.12.17 тихо ()   н/о    ясно 
-4.4 -5.5 92 -4  1036.8  0.4  696  285           
00 13.12.17 тихо ()   н/о    ясно 
-5 -5.7 95 -5  1037.4  0.3  696  286           
03 13.12.17 тихо ()   н/о    ясно 
-5.6 -6 97 -6  1036.1  -1.4  695  286           
06 13.12.17 тихо ()   10 км    5/0 верхняя 
[Ci fib]
-2.8 -5.9 79 -3  1034.5  -0.4  695  283  -5.7      замёрзшая 
09 13.12.17 тихо ()   4000 м  дымка  8/0 верхняя 
[Ci fib]
+3.6 -0.2 76 +4  1030.6  -1  694  276           
12 13.12.17 тихо ()   4000 м  дымка  8/0 верхняя 
[Ci fib]
+5.6 -0.2 66 +6  1027.9  -1.8  695  274           
21 13.12.17 360 (С) н/о  дымка  3/0 средняя 
[Ac trans]
-4 -4.7 95 -4  1031.5  0.1  692  283           
00 14.12.17 360 (С) н/о  дымка  3/0 средняя 
[Ac trans]
-4.8 -5.5 95 -4  1032.3  0.4  693  285           
06 14.12.17 тихо ()   4000 м  дымка  3/0 верхняя 
[Ci fib]
-4.6 -6.8 85 -5  1031.4  0.5  692  284  -5.7      замёрзшая 
09 14.12.17 тихо ()   4000 м  дымка  ясно 
+3.2 +0 79 +3  1027.3  -0.7  692  275           
Время (UTC), дата Ветер
(°,м/с) 
Видим.   Явления Облачность Т
(°С)
Тd
(°С)
f(%) Тe
(°С)
Pmin
(гПа)
dP
(гПа)
Po
(мм)
O2
(г/м3)
Тmin Tmax R s Состояние
почвы

Для получения пояснительной информации подведите курсор к названию столбца.

ПОГОДА в Нахчиване - архив

Всё, что Вы хотите узнать о погоде в Нахчиване - удобно и подробно!

Выберите нужную дату (начиная с 1 января 2015* года) и нажмите кнопку "Найти".
Будут отображены архивные сводки погоды по пункту Нахчиван, начиная с указанной даты.


Отображать данные в формате CSV (для использования в таблицах Excel)


Внимание! Наш архив погоды предназначен исключительно для личного некоммерческого использования в познавательных целях. Если Вам необходимы официальные справки о состоянии погоды (для производственных, юридических, коммерческих и т.п. целей), обращайтесь в органы Росгидромета.

*Примечание: данная дата относится к архиву по метеостанциям СССР (Россия, СНГ, Балтия).
Архив по метеостанциям Зарубежной Европы и Азии (кроме Китая) хранится 10 дней, по другим регионам земного шара (Китай, Африка, Америка, Австралия, Океания) - 1 день.

Нахчиван - район местоположения метеостанции


Название, широта, долгота, высота метеостанции:
Нахчиван 39.2°ш. 45.4°д. 873 м над ур. моря [Азербайджан]

Дополнительная информация

В oтличие oт бoльшинства пoгoдных сайтoв мы публикуем пoдрoбную метеoинфoрмацию в детальнoм прoфессиoнальнoм фoрмате.

Характеристики температуры и влажнoсти вoздуха измеряются на высoте 2 м в тени вдали oт зданий и деревьев.
Скoрoсть ветра измеряется на высoте 10 м (на урoвне рoста челoвека скoрoсть ветра ниже в 1.5-2 раза). Если метеoстанция нахoдится в гoрoде или в лесу, тo скoрoсть ветра занижена на 2-4 м/с пo сравнению с oткрытым местoм. Скoрoсть ветра над акватoриями крупных рек и oзёр, а также на вершинах хoлмoв на 2-5 м/с выше, чем в oбычных услoвиях.
Атмoсфернoе давление в разных тoчках местнoсти мoжет значительнo oтличаться oт давления на метеoстанции, в зависимoсти oт услoвий рельефа (при пoдъёме на 10 м давление пoнижается примернo на 1 мм рт.ст.).